TimeCST,TemperatureF,Dew PointF,Humidity,Sea Level PressureIn,VisibilityMPH,Wind Direction,Wind SpeedMPH,Gust SpeedMPH,PrecipitationIn,Events,Conditions,WindDirDegrees,DateUTC
12:00 AM,68,66,93,29.86,7,WSW,2.3,,,,Mist,250,2013-05-25 06:00:00
12:00 AM,68.0,66.2,94,30.03,6.2,WSW,2.3,-,N/A,,Mostly Cloudy,250,2013-05-25 06:00:00
1:00 AM,68.0,66.2,94,30.02,6.2,NNW,2.3,-,N/A,,Mostly Cloudy,330,2013-05-25 07:00:00
2:00 AM,68.0,64.4,88,30.01,6.2,East,2.3,-,N/A,,Mostly Cloudy,80,2013-05-25 08:00:00
3:00 AM,68,64,82,29.85,12,ENE,4.6,,,,Overcast,60,2013-05-25 09:00:00
3:00 AM,68.0,64.4,88,29.99,-9999.0,ENE,4.6,-,N/A,,Clear,60,2013-05-25 09:00:00
4:00 AM,66.2,62.6,88,29.99,-9999.0,NNE,3.5,-,N/A,,Clear,30,2013-05-25 10:00:00
5:00 AM,66.2,62.6,88,30.01,-9999.0,ENE,3.5,-,N/A,,Clear,70,2013-05-25 11:00:00
6:00 AM,66,62,83,29.90,12,ENE,4.6,,,,Mostly Cloudy,70,2013-05-25 12:00:00
6:00 AM,66.2,62.6,88,30.03,-9999.0,ENE,4.6,-,N/A,,Clear,70,2013-05-25 12:00:00
7:00 AM,68.0,62.6,83,30.05,-9999.0,NE,5.8,-,N/A,,Clear,50,2013-05-25 13:00:00
8:00 AM,69.8,64.4,83,30.06,-9999.0,North,4.6,-,N/A,,Clear,10,2013-05-25 14:00:00
9:00 AM,74,64,62,29.94,12,East,2.3,,,,Mostly Cloudy,80,2013-05-25 15:00:00
9:00 AM,73.4,64.4,73,30.07,-9999.0,East,2.3,-,N/A,,Clear,80,2013-05-25 15:00:00
10:00 AM,77.0,64.4,65,30.07,-9999.0,North,4.6,-,N/A,,Clear,10,2013-05-25 16:00:00
11:00 AM,78.8,64.4,61,30.07,6.2,ESE,6.9,-,N/A,,Mostly Cloudy,120,2013-05-25 17:00:00
11:39 AM,77.0,68.0,74,30.05,6.2,SW,10.4,-,N/A,,Mostly Cloudy,230,2013-05-25 17:39:00
12:00 PM,77,67,65,29.90,12,WSW,12.7,,,,Partly Cloudy,240,2013-05-25 18:00:00
12:00 PM,77.0,68.0,74,30.05,6.2,WSW,12.7,-,N/A,,Scattered Clouds,240,2013-05-25 18:00:00
1:00 PM,75.2,68.0,78,30.03,6.2,WSW,9.2,-,N/A,,Scattered Clouds,240,2013-05-25 19:00:00
2:00 PM,77.0,68.0,74,30.00,6.2,WSW,8.1,-,N/A,,Mostly Cloudy,240,2013-05-25 20:00:00
3:00 PM,75,68,72,29.84,12,West,5.8,,,,Overcast,260,2013-05-25 21:00:00
3:00 PM,75.2,68.0,78,30.00,6.2,West,5.8,-,N/A,,Mostly Cloudy,260,2013-05-25 21:00:00
4:00 PM,75.2,68.0,78,29.99,6.2,WNW,2.3,-,N/A,Rain,Light Rain,290,2013-05-25 22:00:00
5:00 PM,73.4,68.0,83,29.99,6.2,WSW,5.8,-,N/A,Fog,Patches of Fog,250,2013-05-25 23:00:00
6:00 PM,72,69,87,29.86,4,Calm,Calm,,,Rain,Light Rain,,2013-05-26 00:00:00
6:00 PM,71.6,53.6,53,30.02,3.7,Calm,Calm,-,N/A,Fog-Rain,Rain,0,2013-05-26 00:00:00
7:00 PM,71.6,69.8,94,30.03,3.1,SSE,2.3,-,N/A,Rain,Light Rain,150,2013-05-26 01:00:00
7:15 PM,71.6,66.2,83,30.03,6.2,East,3.5,-,N/A,Fog,Patches of Fog,100,2013-05-26 01:15:00
8:00 PM,71.6,68.0,88,30.04,6.2,East,2.3,-,N/A,Fog,Patches of Fog,90,2013-05-26 02:00:00
9:00 PM,,68,,29.88,5,NNE,16.1,,,,,20,2013-05-26 03:00:00
9:00 PM,69.8,68.0,94,30.04,5.0,NW,2.3,-,N/A,Fog,Fog,310,2013-05-26 03:00:00
10:00 PM,69.8,68.0,94,30.07,5.0,NW,3.5,-,N/A,Fog,Fog,320,2013-05-26 04:00:00
11:00 PM,69.8,66.2,88,30.06,5.0,WNW,2.3,-,N/A,Fog,Fog,300,2013-05-26 05:00:00